| time (UTC) | temp F | wind direction | speed MPH | gust MPH | rain 1hr in | rain 24hr in | rain mn in | humidity % | barometer mb |
| 20260505173309 | 86 | 0.0 | 0.0 | 0.00 | 0.00 | 0.00 | 37 | 960.7 | |
| 20260505172809 | 86 | 0.0 | 0.0 | 0.00 | 0.00 | 0.00 | 37 | 960.8 | |
| 20260505172310 | 86 | 0.0 | 0.0 | 0.00 | 0.00 | 0.00 | 35 | 960.7 | |
| 20260505171809 | 86 | 0.0 | 0.0 | 0.00 | 0.00 | 0.00 | 35 | 960.7 | |
| 20260505171309 | 85 | 0.0 | 0.0 | 0.00 | 0.00 | 0.00 | 35 | 960.6 | |
| 20260505170809 | 85 | 0.0 | 0.0 | 0.00 | 0.00 | 0.00 | 34 | 960.6 | |
| 20260505170309 | 85 | 0.0 | 0.0 | 0.00 | 0.00 | 0.00 | 34 | 960.6 | |
| 20260505165809 | 85 | 0.0 | 0.0 | 0.00 | 0.00 | 0.00 | 34 | 960.7 | |
| 20260505165309 | 85 | 0.0 | 0.0 | 0.00 | 0.00 | 0.00 | 34 | 960.7 | |
| 20260505164809 | 85 | 0.0 | 0.0 | 0.00 | 0.00 | 0.00 | 34 | 960.7 | |
| 20260505164309 | 86 | 0.0 | 0.0 | 0.00 | 0.00 | 0.00 | 35 | 960.8 | |
| 20260505163809 | 86 | 0.0 | 0.0 | 0.00 | 0.00 | 0.00 | 34 | 960.8 | |
| 20260505163309 | 86 | 0.0 | 0.0 | 0.00 | 0.00 | 0.00 | 35 | 961.0 | |
| 20260505162809 | 86 | 0.0 | 0.0 | 0.00 | 0.00 | 0.00 | 33 | 960.9 | |
| 20260505162308 | 86 | 0.0 | 0.0 | 0.00 | 0.00 | 0.00 | 33 | 961.0 | |
| 20260505161808 | 86 | 0.0 | 0.0 | 0.00 | 0.00 | 0.00 | 32 | 961.1 | |
| 20260505161308 | 87 | 0.0 | 0.0 | 0.00 | 0.00 | 0.00 | 32 | 961.1 | |
| 20260505160808 | 88 | 0.0 | 0.0 | 0.00 | 0.00 | 0.00 | 31 | 961.2 | |
| 20260505160308 | 90 | 0.0 | 0.0 | 0.00 | 0.00 | 0.00 | 30 | 961.2 | |
| 20260505124819 | 88 | 0.0 | 0.0 | 0.00 | 0.00 | 0.00 | 35 | 962.6 | |
| 20260505124319 | 88 | 0.0 | 0.0 | 0.00 | 0.00 | 0.00 | 35 | 962.6 | |
| 20260505123819 | 88 | 0.0 | 0.0 | 0.00 | 0.00 | 0.00 | 35 | 962.7 | |
| 20260505123319 | 88 | 0.0 | 0.0 | 0.00 | 0.00 | 0.00 | 35 | 962.7 | |
| 20260505122819 | 88 | 0.0 | 0.0 | 0.00 | 0.00 | 0.00 | 35 | 962.8 | |
| 20260505122319 | 88 | 0.0 | 0.0 | 0.00 | 0.00 | 0.00 | 36 | 962.9 | |
| 20260505121819 | 88 | 0.0 | 0.0 | 0.00 | 0.00 | 0.00 | 36 | 963.0 | |
| 20260505121319 | 87 | 0.0 | 0.0 | 0.00 | 0.00 | 0.00 | 37 | 962.9 | |
| 20260505120819 | 87 | 0.0 | 0.0 | 0.00 | 0.00 | 0.00 | 36 | 962.9 | |
| 20260505120318 | 87 | 0.0 | 0.0 | 0.00 | 0.00 | 0.00 | 36 | 963.0 | |
| 20260505115818 | 87 | 0.0 | 0.0 | 0.00 | 0.00 | 0.00 | 37 | 963.1 | |
| 20260505115318 | 86 | 0.0 | 0.0 | 0.00 | 0.00 | 0.00 | 36 | 963.2 | |
| 20260505114818 | 86 | 0.0 | 0.0 | 0.00 | 0.00 | 0.00 | 36 | 963.2 | |
| 20260505114317 | 86 | 0.0 | 0.0 | 0.00 | 0.00 | 0.00 | 36 | 963.2 | |
| 20260505113817 | 86 | 0.0 | 0.0 | 0.00 | 0.00 | 0.00 | 36 | 963.1 | |
| 20260505113317 | 86 | 0.0 | 0.0 | 0.00 | 0.00 | 0.00 | 37 | 963.3 | |
| 20260505112817 | 87 | 0.0 | 0.0 | 0.00 | 0.00 | 0.00 | 37 | 963.2 | |
| 20260505112317 | 87 | 0.0 | 0.0 | 0.00 | 0.00 | 0.00 | 37 | 963.3 | |
| 20260505111817 | 87 | 0.0 | 0.0 | 0.00 | 0.00 | 0.00 | 37 | 963.3 | |
| 20260505111317 | 86 | 0.0 | 0.0 | 0.00 | 0.00 | 0.00 | 38 | 963.4 | |
| 20260505110817 | 85 | 0.0 | 0.0 | 0.00 | 0.00 | 0.00 | 37 | 963.4 | |
| 20260505110317 | 85 | 0.0 | 0.0 | 0.00 | 0.00 | 0.00 | 37 | 963.4 | |
| 20260505101812 | 92 | 0.0 | 0.0 | 0.00 | 0.00 | 0.00 | 34 | 964.1 | |
| 20260505092738 | 86 | 0.0 | 0.0 | 0.00 | 0.00 | 0.00 | 37 | 970.0 | |
| 20260505090737 | 85 | 0.0 | 0.0 | 0.00 | 0.00 | 0.00 | 36 | 970.1 | |
| 20260505084725 | 86 | 0.0 | 0.0 | 0.00 | 0.00 | 0.00 | 39 | 964.4 | |
| 20260505084217 | 85 | 0.0 | 0.0 | 0.00 | 0.00 | 0.00 | 39 | 964.4 | |
| 20260505083717 | 85 | 0.0 | 0.0 | 0.00 | 0.00 | 0.00 | 38 | 964.4 | |
| 20260505083217 | 85 | 0.0 | 0.0 | 0.00 | 0.00 | 0.00 | 38 | 964.5 | |
| 20260505082717 | 85 | 0.0 | 0.0 | 0.00 | 0.00 | 0.00 | 38 | 964.4 | |
| 20260505082216 | 85 | 0.0 | 0.0 | 0.00 | 0.00 | 0.00 | 38 | 964.4 | |
| 20260505081716 | 85 | 0.0 | 0.0 | 0.00 | 0.00 | 0.00 | 38 | 964.4 | |
| 20260505081216 | 84 | 0.0 | 0.0 | 0.00 | 0.00 | 0.00 | 38 | 964.4 | |
| 20260505080716 | 84 | 0.0 | 0.0 | 0.00 | 0.00 | 0.00 | 38 | 964.4 | |
| 20260505080216 | 85 | 0.0 | 0.0 | 0.00 | 0.00 | 0.00 | 39 | 964.3 | |
| 20260505075716 | 85 | 0.0 | 0.0 | 0.00 | 0.00 | 0.00 | 40 | 964.4 | |
| 20260505075216 | 85 | 0.0 | 0.0 | 0.00 | 0.00 | 0.00 | 41 | 964.4 | |
| 20260505074716 | 84 | 0.0 | 0.0 | 0.00 | 0.00 | 0.00 | 39 | 964.6 | |
| 20260505074216 | 83 | 0.0 | 0.0 | 0.00 | 0.00 | 0.00 | 40 | 964.4 | |
| 20260505073716 | 83 | 0.0 | 0.0 | 0.00 | 0.00 | 0.00 | 40 | 964.4 |